[[{"header":{"parameterUnit":"m.s-1","parameterCategory":1,"la1":30.2991,"la2":30.254,"lo1":-89.0895,"lo2":-89.0444,"dy":0.0017,"dx":0.0017,"nx":28,"ny":28,"refTime":"2024-10-18T09:00:00:Z","depth":0,"parameterNumber":2,"parameterNumberName":"U-component_of_WINDS"},"data":[0,0,0,0,0,0,0,0,0,0,0,0,0,0,0,0,0,0,0,0,0,0,0,0,0,0,0,0,0,0,0,0,0,0,0,0,0,0,0,0,0,0,0,0,0,0,0,0,0,0,0,0,0,0,0,0,0,0,-1.8052,-1.8054,0,-1.8217,-1.8218,-1.822,-1.8196,-1.8194,-1.8191,-1.8188,-1.8362,-1.8369,-1.8376,0,0,0,0,0,0,0,0,0,0,0,0,0,-1.7722,-1.7728,-1.8052,-1.8054,-1.8056,-1.8216,-1.8219,-1.8221,-1.8197,-1.8194,-1.819,-1.8187,-1.8359,-1.8368,-1.8377,0,0,0,0,0,0,0,0,0,0,0,0,0,-1.7874,-1.773,-1.8052,-1.8063,-1.8066,-1.8216,-1.8219,-1.8221,-1.8198,-1.8193,-1.8189,-1.8185,-1.8357,-1.8367,-1.8378,-1.8528,0,0,-1.8411,-1.8415,0,0,0,0,0,0,0,0,-1.7865,-1.7886,-1.806,-1.8063,-1.8066,-1.8182,-1.8166,-1.8324,-1.8199,-1.8148,-1.8188,-1.8183,-1.8306,-1.832,-1.836,-1.8536,-1.8543,-1.8412,-1.8418,-1.8423,-1.8426,0,0,0,0,0,0,0,-1.7855,-1.7879,-1.8117,-1.8062,-1.8066,-1.8062,-1.8079,-1.8196,-1.8248,-1.8152,-1.8151,-1.817,-1.8307,-1.835,-1.8364,-1.8546,-1.8411,-1.8421,-1.8428,-1.8432,-1.8855,-1.886,0,0,0,0,0,0,-1.784,-1.787,-1.8112,-1.8122,-1.7953,-1.8071,-1.809,-1.8149,-1.8247,-1.8258,-1.8174,-1.8168,-1.8334,-1.8352,-1.837,-1.8555,-1.8423,-1.8433,-1.8439,-1.885,-1.8856,-1.8861,0,0,0,0,0,0,-1.7833,-1.7862,-1.8105,-1.7996,-1.8026,-1.8081,-1.8147,-1.8154,-1.8198,-1.8263,-1.8273,-1.8208,-1.8331,-1.8355,-1.8489,-1.8561,-1.8438,-1.8448,-1.8845,-1.8852,-1.8859,-1.8925,0,0,0,0,0,0,-1.7824,-1.786,-1.7916,-1.7997,-1.8032,-1.822,-1.8152,-1.8161,-1.8216,-1.8211,-1.8298,-1.8309,-1.833,-1.8473,-1.85,-1.8574,-1.8456,-1.8839,-1.8848,-1.8856,-1.8916,-1.8933,-1.8947,0,0,0,0,0,-1.7812,-1.7929,-1.7919,-1.7949,-1.8104,-1.8225,-1.8245,-1.8265,-1.8222,-1.828,-1.8322,-1.8306,-1.8547,-1.8487,-1.8517,-1.8595,-1.8834,-1.8845,-1.8856,-1.8909,-1.893,-1.8947,0,0,0,0,0,0,-1.7857,-1.794,-1.793,-1.8076,-1.8143,-1.822,-1.8295,-1.8286,-1.8368,-1.836,-1.8383,-1.8403,-1.8539,-1.858,-1.8511,-1.8746,-1.8685,-1.8702,-1.8716,-1.8736,-1.8751,-1.8741,-1.8465,0,0,0,0,0,-1.7884,-1.7973,-1.8041,-1.8163,-1.8197,-1.824,-1.8293,-1.8303,-1.8374,-1.8403,-1.8454,-1.8525,-1.8617,-1.8678,-1.8766,-1.892,-1.8941,-1.8989,-1.9004,-1.9016,-1.9033,-1.912,-1.9143,-1.8896,-1.8896,-1.8896,0,0,-1.7941,-1.7997,-1.8052,-1.8174,-1.8227,-1.8321,-1.8264,-1.8366,-1.8437,-1.8419,-1.8549,-1.8589,-1.867,-1.8815,-1.8882,-1.8853,-1.9105,-1.903,-1.904,-1.9049,-1.9134,-1.9157,-1.9178,-1.8904,-1.8902,-1.8901,0,0,-1.8093,-1.8143,-1.8252,-1.8306,-1.8386,-1.8413,-1.8439,-1.8517,-1.8543,-1.8673,-1.8662,-1.8747,-1.8904,-1.8963,-1.9013,-1.9186,-1.9176,-1.9214,-1.9297,-1.9382,-1.9402,-1.9419,-1.9485,-1.9507,-1.9229,-1.9229,-1.9229,0,-1.8155,-1.8295,-1.8309,-1.8413,-1.8468,-1.8453,-1.8565,-1.8616,-1.8722,-1.8761,-1.8726,-1.8924,-1.8977,-1.9138,-1.918,-1.9219,-1.9252,-1.9207,-1.9397,-1.9415,-1.9431,-1.9494,-1.9518,-1.9233,-1.9233,-1.9232,-1.9232,0,-1.8368,-1.8465,-1.8543,-1.8644,-1.8707,-1.8814,-1.8847,-1.8909,-1.8912,-1.8944,-1.9078,-1.914,-1.9242,-1.9279,-1.9284,-1.9441,-1.9421,-1.9391,-1.9331,-1.9459,-1.9519,-1.9543,-1.924,-1.9238,-1.9237,-1.9236,0,0,-1.8558,-1.8664,-1.8693,-1.874,-1.8826,-1.8903,-1.9008,-1.9106,-1.9161,-1.9233,-1.9325,-1.9458,-1.9431,-1.9488,-1.9498,-1.9572,-1.971,-1.9534,-1.9536,-1.9568,-1.9891,-1.9916,-1.9944,-1.97,-1.9705,-1.9709,-1.9885,0,-1.8723,-1.891,-1.8925,-1.9095,-1.9186,-1.9172,-1.9265,-1.9329,-1.9361,-1.9444,-1.9478,-1.9574,-1.9529,-1.9564,-1.9636,-1.9678,-1.9775,-1.9664,-1.979,-1.9795,-1.9776,-1.9974,-2.0002,-2.0165,-1.9908,-1.9912,-1.9915,0,-1.8941,-1.9019,-1.9197,-1.9271,-1.931,-1.9393,-1.9484,-1.9563,-1.9635,-1.9653,-1.9716,-1.9716,-1.9828,-1.9759,-1.9915,-1.9839,-1.989,-1.9919,-1.9925,-1.9943,-1.9866,-2.0001,-2.0218,-2.0244,-1.9951,-1.9948,-1.9945,0,-1.9067,-1.9216,-1.9342,-1.9382,-1.947,-1.953,-1.957,-1.9638,-1.9696,-1.9775,-1.9813,-1.9905,-1.9956,-2.0028,-2.0054,-2.0001,-2.0209,-2.0142,-2.0231,-2.0231,-2.028,-2.0278,-2.0513,-2.0304,-2.0304,-2.0304,-2.0303,0,-1.9252,-1.9363,-1.9401,-1.9479,-1.9603,-1.9619,-1.9742,-1.9779,-1.9839,-1.9926,-1.9918,-2.0,-2.0026,-2.0113,-2.0133,-2.0261,-2.0283,-2.0303,-2.0308,-2.0307,-2.0305,-2.0345,-2.0337,-2.031,-2.0309,-2.0307,-2.0306,0,-1.9417,-1.9446,-1.9584,-1.9655,-1.9676,-1.9765,-1.9827,-1.9903,-1.9931,-2.0042,-2.0068,-2.0114,-2.0216,-2.0247,-2.037,-2.0383,-2.0534,-2.0526,-2.051,-2.0512,-2.0601,-2.0594,-2.0875,-2.0914,-2.0674,-2.0677,-2.0678,0,-1.9537,-1.9621,-1.9701,-1.9758,-1.98,-1.9891,-1.995,-1.9968,-2.003,-2.0118,-2.0185,-2.0284,-2.0366,-2.053,-2.0575,-2.0669,-2.0667,-2.0759,-2.0682,-2.0679,-2.0675,-2.0672,-2.0682,-2.0775,-2.0778,-2.078,-2.0781,0,-1.9746,-1.9756,-1.984,-1.9929,-1.9999,-2.007,-2.0139,-2.0186,-2.0215,-2.0285,-2.0388,-2.0451,-2.0575,-2.0676,-2.0771,-2.0814,-2.0805,-2.0804,-2.0831,-2.0834,-2.0823,-2.0834,-2.0555,-2.0799,-2.0798,-2.0796,-2.0795,-2.0795,-1.9896,-1.9971,-2.0039,-2.0134,-2.0186,-2.0251,-2.0327,-2.0363,-2.0449,-2.0552,-2.0556,-2.0669,-2.074,-2.0866,-2.0914,-2.1003,-2.0977,-2.1014,-2.1025,-2.1035,-2.1045,-2.0803,-2.102,-2.102,-2.1019,-2.1019,-2.1018,0,-2.011,-2.0152,-2.0238,-2.0334,-2.0408,-2.0387,-2.0462,-2.0527,-2.0626,-2.0691,-2.0771,-2.089,-2.0987,-2.1039,-2.1136,-2.1198,-2.1197,-2.1224,-2.1223,-2.1233,-2.106,-2.103,-2.1224,-2.1224,-2.1224,-2.1224,-2.1224,-2.1223,-2.023,-2.0358,-2.0375,-2.0529,-2.0571,-2.068,-2.0725,-2.0785,-2.0838,-2.0971,-2.1051,-2.1082,-2.1144,-2.1245,-2.1334,-2.1346,-2.1385,-2.1416,-2.1427,-2.1266,-2.1245,-2.1225,-2.1197,-2.1423,-2.1423,-2.1593,-2.1595,-2.1596]},{"header":{"parameterUnit":"m.s-1","parameterCategory":1,"la1":30.2991,"la2":30.254,"lo1":-89.0895,"lo2":-89.0444,"dy":0.0017,"dx":0.0017,"nx":28,"ny":28,"refTime":"2024-10-18T09:00:00:Z","depth":0,"parameterNumber":3,"parameterNumberName":"V-component_of_WINDS"},"data":[0,0,0,0,0,0,0,0,0,0,0,0,0,0,0,0,0,0,0,0,0,0,0,0,0,0,0,0,0,0,0,0,0,0,0,0,0,0,0,0,0,0,0,0,0,0,0,0,0,0,0,0,0,0,0,0,0,0,-2.327,-2.3271,0,-2.3294,-2.3294,-2.3295,-2.3269,-2.3268,-2.3267,-2.3266,-2.3289,-2.329,-2.3292,0,0,0,0,0,0,0,0,0,0,0,0,0,-2.32,-2.3201,-2.327,-2.3271,-2.3271,-2.3294,-2.3294,-2.3295,-2.3269,-2.3268,-2.3267,-2.3266,-2.3288,-2.329,-2.3292,0,0,0,0,0,0,0,0,0,0,0,0,0,-2.3228,-2.3202,-2.327,-2.3261,-2.326,-2.3294,-2.3294,-2.3295,-2.327,-2.3268,-2.3267,-2.3265,-2.3288,-2.329,-2.3292,-2.3335,0,0,-2.3299,-2.33,0,0,0,0,0,0,0,0,-2.3226,-2.323,-2.3262,-2.3262,-2.3261,-2.3277,-2.3278,-2.3308,-2.327,-2.3266,-2.3266,-2.3265,-2.3286,-2.3288,-2.3296,-2.3336,-2.3337,-2.3299,-2.33,-2.3301,-2.3302,0,0,0,0,0,0,0,-2.3224,-2.3229,-2.328,-2.3263,-2.3262,-2.3255,-2.3257,-2.3283,-2.3284,-2.3266,-2.3264,-2.3268,-2.3285,-2.3294,-2.3296,-2.3337,-2.3299,-2.3301,-2.3302,-2.3303,-2.3412,-2.3414,0,0,0,0,0,0,-2.3224,-2.3228,-2.3279,-2.328,-2.324,-2.3257,-2.326,-2.3273,-2.3283,-2.3284,-2.3269,-2.3266,-2.3291,-2.3293,-2.3297,-2.3346,-2.3301,-2.3303,-2.3305,-2.3411,-2.3413,-2.3414,0,0,0,0,0,0,-2.3222,-2.3229,-2.3278,-2.3254,-2.3259,-2.326,-2.3275,-2.3275,-2.3283,-2.3286,-2.3285,-2.3278,-2.3289,-2.3294,-2.3325,-2.3347,-2.3304,-2.3307,-2.3409,-2.3411,-2.3413,-2.3446,0,0,0,0,0,0,-2.322,-2.3228,-2.3245,-2.3254,-2.3261,-2.3307,-2.3277,-2.3276,-2.3287,-2.3284,-2.3293,-2.3294,-2.3289,-2.3322,-2.3328,-2.3349,-2.3308,-2.3407,-2.341,-2.3413,-2.3443,-2.345,-2.3455,0,0,0,0,0,-2.3218,-2.3254,-2.3246,-2.3253,-2.3282,-2.3308,-2.3312,-2.3306,-2.3289,-2.3305,-2.3307,-2.3293,-2.3344,-2.3326,-2.3332,-2.3354,-2.3406,-2.3409,-2.3413,-2.3441,-2.3448,-2.3455,0,0,0,0,0,0,-2.3247,-2.3255,-2.3247,-2.3286,-2.3297,-2.3304,-2.3325,-2.3315,-2.333,-2.3326,-2.3318,-2.332,-2.3353,-2.3357,-2.3337,-2.3395,-2.3372,-2.3377,-2.3391,-2.3399,-2.3404,-2.3402,-2.331,0,0,0,0,0,-2.3258,-2.3279,-2.3285,-2.3319,-2.3325,-2.3324,-2.3335,-2.333,-2.334,-2.3344,-2.3348,-2.3358,-2.3376,-2.3388,-2.3404,-2.3445,-2.3445,-2.3463,-2.3468,-2.3473,-2.3477,-2.3496,-2.3504,-2.3426,-2.3426,-2.3426,0,0,-2.328,-2.3287,-2.3301,-2.3325,-2.3332,-2.3353,-2.3328,-2.3352,-2.3367,-2.3348,-2.3377,-2.3381,-2.3391,-2.3427,-2.3443,-2.3431,-2.3499,-2.3478,-2.3481,-2.3482,-2.3501,-2.3508,-2.3515,-2.3428,-2.3428,-2.3427,0,0,-2.3332,-2.3341,-2.3369,-2.3377,-2.3389,-2.3388,-2.3395,-2.3404,-2.3405,-2.3435,-2.3421,-2.3439,-2.347,-2.3478,-2.3486,-2.354,-2.3527,-2.3546,-2.3575,-2.3594,-2.36,-2.3605,-2.3623,-2.3629,-2.355,-2.355,-2.355,0,-2.3358,-2.339,-2.3385,-2.3409,-2.3419,-2.3404,-2.3432,-2.344,-2.3456,-2.3463,-2.345,-2.3489,-2.3495,-2.3531,-2.3544,-2.3552,-2.3558,-2.3544,-2.36,-2.3605,-2.361,-2.3626,-2.3633,-2.3552,-2.3552,-2.3551,-2.3551,0,-2.3421,-2.3443,-2.3465,-2.3481,-2.3494,-2.3521,-2.3518,-2.3531,-2.3525,-2.3525,-2.3555,-2.3562,-2.3579,-2.3588,-2.3582,-2.3623,-2.3615,-2.3601,-2.3577,-2.362,-2.3635,-2.3641,-2.3555,-2.3554,-2.3553,-2.3553,0,0,-2.349,-2.3503,-2.3511,-2.3518,-2.353,-2.3546,-2.3572,-2.3589,-2.3599,-2.3612,-2.3631,-2.3658,-2.3645,-2.3654,-2.3649,-2.3666,-2.3706,-2.365,-2.365,-2.3658,-2.375,-2.3758,-2.3766,-2.3699,-2.37,-2.3701,-2.3748,0,-2.354,-2.3584,-2.358,-2.3621,-2.364,-2.3626,-2.3647,-2.3657,-2.3658,-2.3673,-2.3674,-2.3693,-2.3675,-2.368,-2.3697,-2.3698,-2.3724,-2.3695,-2.3715,-2.3716,-2.3711,-2.3774,-2.3783,-2.3827,-2.3754,-2.3755,-2.3756,0,-2.3605,-2.3619,-2.3662,-2.367,-2.3678,-2.3697,-2.3712,-2.3728,-2.3738,-2.3737,-2.3747,-2.3739,-2.3763,-2.374,-2.3771,-2.3752,-2.376,-2.3762,-2.3763,-2.3763,-2.3737,-2.3773,-2.3842,-2.3847,-2.3765,-2.3765,-2.3764,0,-2.3648,-2.3678,-2.3707,-2.3714,-2.3724,-2.3738,-2.3743,-2.3751,-2.3761,-2.3774,-2.378,-2.3796,-2.3804,-2.3816,-2.3811,-2.3796,-2.3844,-2.3821,-2.3842,-2.3842,-2.3851,-2.385,-2.3919,-2.386,-2.386,-2.386,-2.386,0,-2.3703,-2.3729,-2.3727,-2.3744,-2.3773,-2.3768,-2.3796,-2.3799,-2.3807,-2.3824,-2.3813,-2.3829,-2.3823,-2.3839,-2.3836,-2.3861,-2.3866,-2.3865,-2.3863,-2.3865,-2.3864,-2.3868,-2.3864,-2.3862,-2.3861,-2.3861,-2.3861,0,-2.3755,-2.3755,-2.3785,-2.3793,-2.3795,-2.3816,-2.3822,-2.3838,-2.3838,-2.386,-2.3865,-2.3865,-2.3883,-2.388,-2.39,-2.3898,-2.3929,-2.3925,-2.3926,-2.3924,-2.3945,-2.3942,-2.4017,-2.4026,-2.3963,-2.3964,-2.3964,0,-2.379,-2.3809,-2.3819,-2.383,-2.3836,-2.3854,-2.3864,-2.386,-2.3871,-2.3883,-2.3897,-2.3914,-2.3927,-2.3956,-2.3957,-2.3972,-2.3967,-2.3992,-2.3969,-2.3969,-2.3964,-2.3962,-2.3963,-2.3996,-2.3997,-2.3997,-2.3998,0,-2.3849,-2.3848,-2.3864,-2.3879,-2.3892,-2.3904,-2.3915,-2.3924,-2.392,-2.3933,-2.3951,-2.3962,-2.3982,-2.3998,-2.4012,-2.4016,-2.4006,-2.4005,-2.4011,-2.4011,-2.401,-2.4009,-2.3936,-2.4003,-2.4003,-2.4002,-2.4002,-2.4002,-2.3892,-2.3909,-2.3918,-2.3935,-2.3943,-2.3953,-2.3968,-2.397,-2.3985,-2.4001,-2.3998,-2.4018,-2.4026,-2.4044,-2.4049,-2.4064,-2.4055,-2.4063,-2.4065,-2.4066,-2.4068,-2.4009,-2.4067,-2.4067,-2.4067,-2.4067,-2.4067,0,-2.395,-2.3955,-2.3971,-2.3986,-2.4,-2.399,-2.4001,-2.4013,-2.4031,-2.404,-2.4053,-2.4073,-2.4089,-2.4091,-2.4106,-2.4117,-2.4113,-2.4121,-2.4119,-2.412,-2.4077,-2.4069,-2.4124,-2.4124,-2.4124,-2.4124,-2.4124,-2.4124,-2.3981,-2.4007,-2.4007,-2.4037,-2.4042,-2.4062,-2.4068,-2.4077,-2.4084,-2.4107,-2.412,-2.4122,-2.4128,-2.4143,-2.4157,-2.4157,-2.4162,-2.4172,-2.417,-2.4129,-2.4123,-2.4117,-2.4111,-2.4173,-2.4173,-2.4212,-2.4212,-2.4212]}]]